Regional Weather Roundup
Issued by NWS

Home | Current Version | Previous Version | Text Only | Print | Product List | Glossary Off
Versions: 1 2 3 4 5 6 7 8 9 10 11 12 13 14 15 16 17 18 19 20 21 22 23 24 25 26 27 28 29 30 31 32 33 34 35 36 37 38 39 40 41 42 43 44 45 46 47 48 49 50

000
ASUS43 KTOP 192359
RWRKS

WEATHER ROUNDUP FOR KANSAS
NATIONAL WEATHER SERVICE GOODLAND KS
700 PM CDT SAT AUG 19 2017

NOTE:  "FAIR" INDICATES FEW OR NO CLOUDS BELOW 12,000 FEET WITH NO
SIGNIFICANT WEATHER AND/OR OBSTRUCTIONS TO VISIBILITY.

KSZ001>006-013>018-027>032-041>047-200100-
NORTHWEST KANSAS

CITY           SKY/WX    TMP DP  RH WIND       PRES   REMARKS
GOODLAND       SUNNY     92  52  25 SW13      29.89F
6HR MIN TEMP:  85; 6HR MAX TEMP:  94; 6HR PCP: TRACE;

HAYS           SUNNY     95  64  35 SE14      29.84S HX  97
HILL CITY      SUNNY     95  56  26 S7        29.83F
6HR MIN TEMP:  94; 6HR MAX TEMP: 102;

RUSSELL        SUNNY     95  60  31 SE17      29.83F HX  95
6HR MIN TEMP:  92; 6HR MAX TEMP:  98;

$$

KSZ061>065-074>080-084>089-200100-
SOUTHWEST KANSAS

CITY           SKY/WX    TMP DP  RH WIND       PRES   REMARKS
DODGE CITY     CLOUDY    93  56  28 S10       29.90F
6HR MIN TEMP:  93; 6HR MAX TEMP: 100;

ELKHART          N/A    N/A N/A N/A MISG        N/A
GARDEN CITY    PTSUNNY   89  63  41 S12       29.91F
6HR MIN TEMP:  89; 6HR MAX TEMP:  95;

GREAT BEND     SUNNY     92  69  47 SE12      29.86S HX  97
LIBERAL        CLOUDY    88  66  48 SW7       29.94F
$$

KSZ066>073-081>083-090>101-200100-
SOUTHEAST KANSAS

CITY           SKY/WX    TMP DP  RH WIND       PRES   REMARKS
CHANUTE        CLOUDY    85  77  77 E6        29.90F HX  95
6HR MIN TEMP:  77; 6HR MAX TEMP:  95; 6HR PCP:  0.17;

COFFEYVILLE    MOSUNNY   87  78  74 S6        29.88F HX 100
6HR MIN TEMP:  87; 6HR MAX TEMP:  94;

HUTCHINSON     SUNNY     90  67  46 SE13      29.87R
6HR MIN TEMP:  90; 6HR MAX TEMP:  98;

MEDICINE LODGE   N/A     95  68  41 S6        29.86S HX  99
NEWTON         SUNNY     89  71  55 S10       29.90S HX  95
PARSONS        CLOUDY    86  77  74 CALM      29.90F HX  97
6HR MIN TEMP:  85; 6HR MAX TEMP:  95;

WICHITA INTL   CLOUDY    85  64  49 S9        29.88S
6HR MIN TEMP:  85; 6HR MAX TEMP:  99;

WICHITA JABRA  CLOUDY    86  67  52 S8        29.88F
6HR MIN TEMP:  86; 6HR MAX TEMP:  95; 6HR PCP: TRACE;

WINFIELD       LGT RAIN  87  76  69 S7        29.89S HX  97
6HR MIN TEMP:  87; 6HR MAX TEMP:  94; 6HR PCP: TRACE;

$$

KSZ007>012-019>026-033>040-048>060-102>105-200100-
NORTHEAST KANSAS

CITY           SKY/WX    TMP DP  RH WIND       PRES   REMARKS
CONCORDIA      SUNNY     87  73  62 SE9       29.84F
6HR MIN TEMP:  87; 6HR MAX TEMP:  93;

EMPORIA        SUNNY     87  75  67 SE9       29.89F HX  96
6HR MIN TEMP:  87; 6HR MAX TEMP:  91;

LAWRENCE       SUNNY     88  73  61 SE8       29.88F HX  95
6HR MIN TEMP:  87; 6HR MAX TEMP:  92;

MANHATTAN      SUNNY     90  75  61 S5        29.86S HX 100
6HR MIN TEMP:  88; 6HR MAX TEMP:  93;

OLATHE IND     SUNNY     87  73  62 SE8       29.91F
6HR MIN TEMP:  87; 6HR MAX TEMP:  91;

OLATHE EXE     SUNNY     85  73  67 S9        29.91F
6HR MIN TEMP:  85; 6HR MAX TEMP:  90;

SALINA         SUNNY     98  61  29 S15       29.84F HX  98
6HR MIN TEMP:  93; 6HR MAX TEMP: 101;

TOPEKA BILLARD SUNNY     89  73  59 SE7       29.87F HX  97
6HR MIN TEMP:  89; 6HR MAX TEMP:  93;

TOPEKA FORBES  SUNNY     90  74  59 SE12      29.88F HX  99
6HR MIN TEMP:  89; 6HR MAX TEMP:  94;

$$




USA.gov is the U.S. government's official web portal to all federal, state and local government web resources and services.